This demonstration page uses our WeatherBlox Daily Observations layout. Learn more.

Left ArrowRight Arrow

Hourly Observations for April 14, 2018

Temp ( °F °C ) Dew Point ( °F °C ) Humidity (%) Winds ( mph kmh ) Pressure ( in mb ) Visibility ( mi km ) Precip ( " mm )
12:53 am 00:53 Partly Cloudy 69 20.6 48 8.9 47 47 Calm 29.83 1010 10 16 0.00 0.00
1:53 am 01:53 Clear 66 18.9 48 8.9 52 52 Calm 29.81 1010 10 16 0.00 0.00
2:53 am 02:53 Clear 68 20 45 7.2 44 44 SSE 5 7 29.78 1009 10 16 0.00 0.00
3:53 am 03:53 Clear 68 20 45 7.2 44 44 VRB 5 7 29.77 1008 10 16 0.00 0.00
4:53 am 04:53 Clear 68 20 46 7.8 45 45 VRB 6 9 29.77 1008 10 16 0.00 0.00
5:53 am 05:53 Clear 66 18.9 46 7.8 49 49 SSE 5 7 29.76 1008 10 16 0.00 0.00
6:53 am 06:53 Cloudy 67 19.4 47 8.3 49 49 VRB 5 7 29.76 1008 10 16 0.00 0.00
7:53 am 07:53 Cloudy 64 17.8 50 10 60 60 Calm 29.79 1009 10 16 0.00 0.00
8:53 am 08:53 Cloudy 66 18.9 51 10.6 59 59 S 3 6 29.80 1009 10 16 0.01 0.25
9:53 am 09:53 Cloudy 68 20 51 10.6 55 55 VRB 5 7 29.79 1009 10 16 0.00 0.03
10:53 am 10:53 Cloudy 70 21.1 52 11.1 53 53 VRB 5 7 29.79 1009 10 16 0.00 0.00
11:18 am 11:18 Cloudy with Heavy Rain 66 18.9 55 12.8 68 68 SW 5 7 29.80 1009 2 3 0.05 1.27
11:25 am 11:25 Cloudy with Rain 64 17.8 57 13.9 78 78 WSW 6 9 29.83 1010 1 2 0.07 1.78
11:29 am 11:29 Cloudy with Rain 63 17.2 57 13.9 81 81 SW 5 7 29.83 1010 2 3 0.08 2.03
11:42 am 11:42 Cloudy with Light Rain 62 16.7 58 14.4 86 86 W 7 11 29.83 1010 4 6 0.10 2.54
11:53 am 11:53 Cloudy with Light Rain 62 16.7 58 14.4 86 86 W 8 13 29.83 1010 8 13 0.10 2.54
12:28 pm 12:28 Cloudy with Light Rain 61 16.1 59 15 93 93 W 8 13 29.85 1011 2 3 0.01 0.25
12:35 pm 12:35 Cloudy with Light Rain 61 16.1 59 15 93 93 W 6 9 29.85 1011 2 3 0.02 0.51
12:38 pm 12:38 Cloudy with Light Rain 61 16.1 59 15 93 93 WSW 5 7 29.85 1011 2 2 0.03 0.76
12:47 pm 12:47 Cloudy with Light Rain 61 16 59 15 94 94 WSW 6 9 29.85 1011 2 3 0.04 1.02
12:53 pm 12:53 Cloudy with Rain 61 16.1 59 15 93 93 WSW 3 6 29.83 1010 3 4 0.05 1.27
1:03 pm 13:03 Cloudy with Light Rain 61 16.1 60 15.6 97 97 SW 3 6 29.83 1010 3 5 0.01 0.25
1:53 pm 13:53 Partly Cloudy 64 17.8 60 15.6 87 87 SE 5 7 29.80 1009 10 16 0.01 0.25
2:53 pm 14:53 Partly Cloudy 64 17.8 59 15 84 84 VRB 6 9 29.79 1009 10 16 0.00 0.00
3:53 pm 15:53 Mostly Sunny 66 18.9 59 15 78 78 SSW 6 9 29.80 1009 10 16 0.00 0.03
4:53 pm 16:53 Mostly Cloudy 67 19.4 58 14.4 73 73 S 5 7 29.79 1009 10 16 0.00 0.00
5:53 pm 17:53 Mostly Sunny 67 19.4 59 15 76 76 S 7 11 29.77 1008 10 16 0.00 0.03
6:53 pm 18:53 Sunny 66 18.9 58 14.4 75 75 Calm 29.77 1008 10 16 0.00 0.00
7:53 pm 19:53 Partly Cloudy 66 18.9 58 14.4 75 75 VRB 5 7 29.79 1009 10 16 0.00 0.00
8:53 pm 20:53 Cloudy 65 18.3 57 13.9 76 76 SSE 3 6 29.82 1010 10 16 0.00 0.00
9:53 pm 21:53 Cloudy 65 18.3 57 13.9 76 76 Calm 29.83 1010 10 16 0.00 0.03
10:53 pm 22:53 Cloudy with Light Rain 65 18.3 57 13.9 76 76 VRB 7 11 29.84 1011 10 16 0.00 0.03
11:53 pm 23:53 Cloudy with Rain 62 16.7 59 15 90 90 S 7 11 29.83 1010 5 8 0.07 1.78

Powered by AerisWeather